sim
Sign-in with your pilot id or email,
or register
Callsign
Passwort

Schedule Details

Flight Number: RYR3094 (2)
Departure: Paris Beauvais-Tille Airport (LFOB) at 10:55
Arrival: Thessaloniki International Airport (LGTS) at 13:45
Route: Ryanair Passenger Schedule. Enter filed route here before submitting Pirep.

Weather Information
Getting current METAR information for LFOB 252130Z AUTO 19003KT 140V220 CAVOK 07/06 Q1008 NOSIG
Getting current METAR information for LGTS 252120Z 00000KT CAVOK 15/12 Q1020 NOSIG

Schedule Frequency

Route Map